Klamath Falls, OR

2:18 PM PST on February 22, 2017 (GMT -0800)
Klamath Falls International

Weather History for KLMT - June, 2013

Change the Weather History Date:

Sunday, June 16, 2013

  Actual Average Record
Temperature  
Mean Temperature 61 °F 58 °F  
Max Temperature 80 °F 74 °F 94 °F (1961)
Min Temperature 41 °F 42 °F 32 °F (1954)
Degree Days  
Heating Degree Days 4 7  
Month to date heating degree days 77 144  
Since 1 June heating degree days 77 144  
Since 1 July heating degree days 6534 6900  
Cooling Degree Days 0 0  
Month to date cooling degree days 18 0  
Year to date cooling degree days 18 1  
Since 1 June cooling degree days 18 0  
Growing Degree Days 11 (Base 50)    
Moisture  
Dew Point 40 °F    
Average Humidity 50    
Maximum Humidity 89    
Minimum Humidity 16    
Precipitation  
Precipitation 0.00 in 0.04 in 0.78 in (1937)
Month to date precipitation 0.00 0.40  
Year to date precipitation 3.39 8.19  
Snow  
Snow 0.00 in - - ()
Month to date snowfall 0.0  
Year to date snowfall 0.0  
Snow Depth 0.00 in    
Sea Level Pressure  
Sea Level Pressure 30.00 in    
Wind  
Wind Speed 6 mph (WSW)    
Max Wind Speed 21 mph    
Max Gust Speed 26 mph    
Visibility 10 miles    
Events      
T = Trace of Precipitation, MM = Missing Value Source: NWS Daily Summary

Daily Weather History Graph

Daily Weather History Graph

Search for Another Location

Airport or City:

Trip Planner

Search our weather history database for the weather conditions in past years. The results will help you decide how hot, cold, wet, or windy it might be!

Date:

Astronomy

Jun. 16, 2013 Rise Set
Actual Time 5:30 AM PDT 8:45 PM PDT
Civil Twilight 4:55 AM PDT 9:19 PM PDT
Nautical Twilight 4:11 AM PDT 10:04 PM PDT
Astronomical Twilight 3:16 AM PDT 10:58 PM PDT
Moon 1:19 PM PDT (6/16) 12:45 AM PDT (6/16)
Length of Visible Light 16h 24m
Length of Day
15h 15m
Waxing Crescent, 51% of the Moon is Illuminated
Jun 16
Waxing Crescent
Jun 23
Full
Jun 29
Last Quarter
Jul 8
New
Jul 15
First Quarter

Hourly Weather History & Observations

Time (PDT) Temp. Dew Point Humidity Pressure Visibility Wind Dir Wind Speed Gust Speed Precip Events Conditions
12:53 AM 52.0 °F 43.0 °F 71% 29.96 in 10.0 mi Calm Calm - N/A   Clear
1:53 AM 48.0 °F 42.1 °F 80% 29.98 in 10.0 mi Calm Calm - N/A   Clear
2:53 AM 48.0 °F 42.1 °F 80% 29.97 in 10.0 mi South 3.5 mph - N/A   Clear
3:53 AM 46.0 °F 39.9 °F 79% 29.97 in 10.0 mi Calm Calm - N/A   Clear
4:53 AM 45.0 °F 39.0 °F 80% 29.98 in 10.0 mi Calm Calm - N/A   Clear
5:53 AM 43.0 °F 39.9 °F 89% 30.00 in 10.0 mi Calm Calm - N/A   Clear
6:53 AM 50.0 °F 44.1 °F 80% 30.00 in 10.0 mi Calm Calm - N/A   Clear
7:53 AM 55.9 °F 45.0 °F 67% 30.01 in 10.0 mi Calm Calm - N/A   Clear
8:53 AM 62.1 °F 46.9 °F 58% 30.01 in 10.0 mi SSW 3.5 mph - N/A   Clear
9:53 AM 64.9 °F 45.0 °F 48% 30.01 in 10.0 mi SSW 3.5 mph - N/A   Partly Cloudy
10:53 AM 69.1 °F 43.0 °F 39% 30.01 in 10.0 mi Calm Calm - N/A   Partly Cloudy
11:53 AM 71.1 °F 41.0 °F 34% 30.01 in 10.0 mi South 5.8 mph - N/A   Partly Cloudy
12:53 PM 75.9 °F 37.9 °F 25% 29.99 in 10.0 mi SW 8.1 mph - N/A   Clear
1:53 PM 75.9 °F 35.1 °F 23% 29.99 in 10.0 mi Variable 4.6 mph - N/A   Partly Cloudy
2:53 PM 77.0 °F 28.9 °F 17% 29.97 in 10.0 mi NW 5.8 mph 18.4 mph N/A   Partly Cloudy
3:53 PM 77.0 °F 28.9 °F 17% 29.97 in 10.0 mi Variable 4.6 mph - N/A   Partly Cloudy
4:53 PM 79.0 °F 30.0 °F 17% 29.96 in 10.0 mi WNW 12.7 mph 20.7 mph N/A   Partly Cloudy
5:53 PM 78.1 °F 32.0 °F 19% 29.97 in 10.0 mi West 18.4 mph - N/A   Scattered Clouds
6:53 PM 73.9 °F 39.0 °F 28% 29.98 in 10.0 mi WNW 16.1 mph 23.0 mph N/A   Clear
7:53 PM 69.1 °F 39.9 °F 35% 30.00 in 10.0 mi WNW 15.0 mph - N/A   Clear
8:53 PM 64.0 °F 42.1 °F 45% 30.02 in 10.0 mi WNW 6.9 mph - N/A   Clear
9:53 PM 59.0 °F 42.1 °F 53% 30.04 in 10.0 mi WNW 8.1 mph - N/A   Clear
10:53 PM 57.0 °F 42.1 °F 57% 30.05 in 10.0 mi WNW 6.9 mph - N/A   Clear
11:53 PM 54.0 °F 43.0 °F 66% 30.05 in 10.0 mi West 3.5 mph - N/A   Clear